Location: Lac Echo
(45.9375°N, 75.4580°W)
Time: 13:15:09
(UTC-05:00)

Amateur Radio Satellites - All Passes

Search period start: 22 January 2017 12:45
Search period end: 23 January 2017 12:45
Location: Lac Echo, 45.9375°N, 75.4580°W

Satellite Date Start Highest point End Downlink Frequencies (MHz)
Time Altitude Azimuth
SPROUT 22 Jan 12:57:33 13:01:42 53° 288° (WNW) 13:05:50 437.525
AO-7 22 Jan 13:00:10 13:07:10 31° 53° (NE) 13:14:10 29.400- 29.500
UKube-1 22 Jan 13:04:33 13:08:53 83° 102° (ESE) 13:13:11 .
DX 1 22 Jan 13:09:53 13:14:12 65° 287° (WNW) 13:18:28 434.975-435.025
Oscar 19 22 Jan 13:17:00 13:21:52 40° 262° (W) 13:26:46 437.125/150
AIST 1 22 Jan 13:21:16 13:25:29 50° 94° (E) 13:29:42
Cosmos 2491 22 Jan 13:22:28 13:31:14 75° 265° (W) 13:40:00 435.465 / 435.565
Cosmos 2504 22 Jan 13:23:43 13:30:29 27° 82° (E) 13:36:55 435.465 / 435.565
CUBEBUG 1 22 Jan 13:27:15 13:29:46 15° 299° (WNW) 13:32:17 437.445
YUBILEINY 22 Jan 13:30:17 13:38:44 53° 89° (E) 13:47:13 435.215
AO-85 22 Jan 13:41:47 13:46:27 88° 125° (SE) 13:50:47 145.980
Gurwin Techsat 1B 22 Jan 13:48:47 13:53:43 39° 263° (W) 13:58:42 435.225
AISAT 22 Jan 13:49:38 13:52:02 15° 300° (WNW) 13:54:26 437.250
ITUPSAT 1 22 Jan 13:52:47 13:56:15 19° 92° (E) 13:59:42 437.325
DANDE 22 Jan 13:52:51 14:00:19 47° 71° (ENE) 14:08:17 436.750
O/OREOS (USA 219) 22 Jan 13:53:51 13:56:10 14° 46° (NE) 13:58:29 437.305
50 SAT 22 Jan 13:54:26 13:55:21 11° 299° (WNW) 13:56:16 437.505
ITAMSAT 1 22 Jan 14:04:14 14:09:22 69° 72° (ENE) 14:14:32 435.822/435.867
TISAT 1 22 Jan 14:17:38 14:21:40 49° 289° (WNW) 14:25:41 437.305
CUSAT 1 22 Jan 14:23:51 14:31:36 56° 268° (W) 14:38:44 437.405
BEESAT 22 Jan 14:25:10 14:29:41 39° 98° (E) 14:34:10 436.000
SWISSCUBE 22 Jan 14:26:59 14:31:37 45° 99° (E) 14:36:13 437.505
UKube-1 22 Jan 14:42:35 14:44:16 12° 302° (WNW) 14:45:58 .
BRITE-PL 22 Jan 14:47:11 14:51:17 21° 61° (ENE) 14:55:19 437.365/2234.400
SO-50 22 Jan 14:47:42 14:51:44 31° 42° (NE) 14:55:43 436.795
AO-7 22 Jan 14:50:54 14:59:15 74° 253° (WSW) 15:07:41 29.400- 29.500
AIST 1 22 Jan 15:00:31 15:03:23 17° 292° (WNW) 15:06:15
BEESAT 3 22 Jan 15:13:38 15:16:56 27° 116° (ESE) 15:20:18 437.485
Cosmos 2504 22 Jan 15:14:38 15:23:13 71° 281° (W) 15:31:17 435.465 / 435.565
Cosmos 2491 22 Jan 15:21:44 15:26:29 16° 287° (WNW) 15:31:15 435.465 / 435.565
AO-85 22 Jan 15:24:22 15:27:23 18° 324° (NW) 15:30:17 145.980
YUBILEINY 22 Jan 15:27:42 15:35:48 39° 291° (WNW) 15:44:00 435.215
ITUPSAT 1 22 Jan 15:29:42 15:34:24 53° 289° (WNW) 15:39:04 437.325
O/OREOS (USA 219) 22 Jan 15:31:44 15:36:16 89° 78° (ENE) 15:40:47 437.305
CUTE-I 22 Jan 15:35:15 15:36:52 11° 53° (NE) 15:38:31 437.470
DANDE 22 Jan 15:35:39 15:43:05 47° 269° (W) 15:50:56 436.750
MOZHAYETS 4 22 Jan 15:37:39 15:42:18 68° 102° (ESE) 15:46:56
ITAMSAT 1 22 Jan 15:46:06 15:49:20 17° 270° (W) 15:52:37 435.822/435.867
M-CUBED/EXP-1 PRIME 22 Jan 15:56:15 15:59:00 23° 101° (E) 16:01:41 437.505
KKS-1 22 Jan 16:00:48 16:04:55 36° 98° (E) 16:09:00 437.445
BEESAT 2 22 Jan 16:03:03 16:06:44 38° 118° (ESE) 16:10:28 435.950
BEESAT 22 Jan 16:03:17 16:07:17 27° 296° (WNW) 16:11:17 436.000
SWISSCUBE 22 Jan 16:05:20 16:09:08 24° 297° (WNW) 16:12:56 437.505
CUSAT 1 22 Jan 16:09:34 16:11:44 11° 287° (WNW) 16:13:52 437.405
HORYU 2 22 Jan 16:10:33 16:14:45 45° 70° (ENE) 16:18:59 437.375
Cubesat XI-IV 22 Jan 16:16:08 16:20:18 24° 61° (ENE) 16:24:29 437.490
GOMX 1 22 Jan 16:16:08 16:21:14 48° 71° (ENE) 16:26:06 467.674
NOAA 15 22 Jan 16:16:31 16:20:49 26° 62° (ENE) 16:25:07 137.62
BRITE-PL 22 Jan 16:23:33 16:29:14 70° 259° (W) 16:34:48 437.365/2234.400
SO-50 22 Jan 16:28:04 16:32:18 41° 241° (WSW) 16:36:29 436.795
CUBESAT XI-V 22 Jan 16:29:47 16:34:11 38° 97° (E) 16:38:31 437.345
AUBIESAT-1 22 Jan 16:30:29 16:33:47 51° 107° (ESE) 16:36:58 437.475
NOAA 18 22 Jan 16:39:28 16:43:45 24° 60° (ENE) 16:48:01 137.9125
DOVE 4 22 Jan 16:43:55 16:48:21 35° 69° (ENE) 16:52:33 437.250
STARS 22 Jan 16:47:18 16:51:35 51° 100° (E) 16:55:50 437.465
AO-7 22 Jan 16:48:46 16:53:26 16° 274° (W) 16:58:08 29.400- 29.500
BEESAT 3 22 Jan 16:50:52 16:54:27 34° 315° (NW) 16:58:06 437.485
CUTE-I 22 Jan 17:10:41 17:15:57 67° 72° (ENE) 17:21:14 437.470
Cosmos 2504 22 Jan 17:13:12 17:18:08 16° 303° (WNW) 17:22:54 435.465 / 435.565
O/OREOS (USA 219) 22 Jan 17:14:48 17:14:54 10° 264° (W) 17:15:01 437.305
MOZHAYETS 4 22 Jan 17:16:08 17:18:56 16° 300° (WNW) 17:21:45
LilacSat-2 22 Jan 17:17:24 17:21:10 81° 77° (ENE) 17:25:00 437.200
CANX-2 22 Jan 17:29:14 17:31:49 16° 62° (ENE) 17:34:26 2200.000
M-CUBED/EXP-1 PRIME 22 Jan 17:30:48 17:33:27 22° 299° (WNW) 17:36:00 437.505
Cosmos 2499 22 Jan 17:32:55 17:37:04 15° 76° (ENE) 17:41:06 435.465 / 435.565
SEEDS 22 Jan 17:36:38 17:37:58 11° 59° (ENE) 17:39:17 437.485
KKS-1 22 Jan 17:37:42 17:41:19 25° 295° (WNW) 17:44:54 437.445
BEESAT 2 22 Jan 17:41:13 17:44:37 26° 318° (NW) 17:48:04 435.950
HO-68 22 Jan 17:45:20 17:51:54 40° 61° (ENE) 17:58:30 435.675
HORYU 2 22 Jan 17:48:20 17:51:31 19° 267° (W) 17:54:44 437.375
Cubesat XI-IV 22 Jan 17:54:51 18:00:02 54° 260° (W) 18:05:16 437.490
GOMX 1 22 Jan 17:55:08 17:59:28 25° 267° (W) 18:03:40 467.674
NOAA 15 22 Jan 17:55:09 18:00:17 50° 260° (W) 18:05:29 137.62
CINEMA 3 22 Jan 17:55:21 17:59:26 41° 71° (ENE) 18:03:25 145.822/145.860
AUBIESAT-1 22 Jan 18:06:29 18:07:48 12° 304° (NW) 18:09:06 437.475
BRITE-PL 22 Jan 18:07:29 18:08:33 10° 276° (W) 18:09:37 437.365/2234.400
CUBESAT XI-V 22 Jan 18:07:30 18:11:23 26° 295° (WNW) 18:15:14 437.345
NOAA 18 22 Jan 18:18:36 18:24:01 58° 258° (WSW) 18:29:26 137.9125
GONETS M04 22 Jan 18:19:49 18:26:44 28° 80° (E) 18:33:42
DOVE 4 22 Jan 18:21:49 18:26:03 29° 265° (W) 18:30:07 437.250
AIST 2 22 Jan 18:22:39 18:26:02 25° 114° (ESE) 18:29:28 435.215
STARS 22 Jan 18:24:34 18:27:34 18° 298° (WNW) 18:30:34 437.465
CUTE 1.7 + AOD 2 22 Jan 18:33:14 18:37:25 58° 73° (ENE) 18:41:38 437.475
CUBEBUG 2 22 Jan 18:34:14 18:37:40 26° 67° (ENE) 18:41:07 437.445
FUNcube-1 22 Jan 18:47:28 18:49:35 14° 61° (ENE) 18:51:42 145.935
CUTE-I 22 Jan 18:52:58 18:56:29 18° 270° (W) 19:00:02 437.470
UWE-3 22 Jan 18:57:15 19:00:48 29° 68° (ENE) 19:04:24 435.000/436.395/437.385
CANX-2 22 Jan 19:03:02 19:07:14 58° 260° (W) 19:11:29 2200.000
SEEDS 22 Jan 19:08:44 19:12:58 86° 251° (WSW) 19:17:16 437.485
COMPASS 1 22 Jan 19:09:24 19:13:32 64° 75° (ENE) 19:17:44 437.405
ZACube-1 22 Jan 19:10:32 19:13:54 25° 66° (ENE) 19:17:19 437.345
STRAND 1 22 Jan 19:13:23 19:18:26 52° 100° (E) 19:23:27 437.568
AAUSAT CUBESAT 2 22 Jan 19:18:07 19:22:15 62° 74° (ENE) 19:26:24 437.432
Cosmos 2499 22 Jan 19:20:40 19:28:58 76° 95° (E) 19:36:40 435.465 / 435.565
HO-68 22 Jan 19:32:40 19:39:31 47° 261° (W) 19:46:26 435.675
CINEMA 3 22 Jan 19:33:34 19:36:45 20° 267° (W) 19:39:53 145.822/145.860
Oscar 11 22 Jan 19:41:22 19:45:28 44° 71° (ENE) 19:49:36 145.826/435.025
AIST 2 22 Jan 20:00:25 20:04:20 40° 313° (NW) 20:08:19 435.215
CUBEBUG 2 22 Jan 20:10:34 20:14:13 30° 264° (W) 20:17:54 437.445
CUTE 1.7 + AOD 2 22 Jan 20:11:17 20:13:38 14° 271° (W) 20:16:00 437.475
DELFI C3 22 Jan 20:13:24 20:17:00 33° 69° (ENE) 20:20:38 145.870
GONETS M04 22 Jan 20:14:04 20:22:44 71° 282° (WNW) 20:31:33
FUNcube-1 22 Jan 20:21:13 20:25:18 65° 259° (W) 20:29:28 145.935
AO-85 22 Jan 20:31:18 20:34:22 21° 39° (NE) 20:37:22 145.980
UWE-3 22 Jan 20:33:44 20:37:15 27° 265° (W) 20:40:49 435.000/436.395/437.385
HUMSAT D 22 Jan 20:34:26 20:38:05 31° 68° (ENE) 20:41:47 437.325/437.525
PRISM 22 Jan 20:36:54 20:39:54 19° 93° (E) 20:42:54 437.425
ZACube-1 22 Jan 20:46:22 20:50:05 32° 264° (W) 20:53:51 437.345
COMPASS 1 22 Jan 20:47:38 20:49:32 13° 271° (W) 20:51:26 437.405
STRAND 1 22 Jan 20:53:15 20:57:17 24° 298° (WNW) 21:01:18 437.568
AAUSAT CUBESAT 2 22 Jan 20:56:06 20:58:07 13° 271° (W) 21:00:09 437.432
RS-15 22 Jan 20:58:35 21:04:26 15° 93° (E) 21:10:21 29.354- 29.394
Cosmos 2499 22 Jan 21:16:20 21:22:50 25° 295° (WNW) 21:29:00 435.465 / 435.565
Oscar 11 22 Jan 21:18:43 21:21:49 19° 268° (W) 21:24:56 145.826/435.025
JAS-2 22 Jan 21:35:19 21:40:20 19° 88° (E) 21:45:30 435.910
ISS 22 Jan 21:36:23 21:39:32 47° 145° (SE) 21:42:41 145.825
AISAT 22 Jan 21:38:40 21:39:40 11° 57° (ENE) 21:40:41 437.250
AIST 2 22 Jan 21:43:27 21:43:57 10° 335° (NNW) 21:44:28 435.215
UNISAT 6 22 Jan 21:46:42 21:50:52 37° 98° (E) 21:55:05 437.425
DELFI C3 22 Jan 21:48:40 21:51:52 22° 266° (W) 21:55:05 145.870
BY70-1 22 Jan 21:52:24 21:55:25 52° 73° (ENE) 21:58:39 436.1900
TIGRISAT 22 Jan 21:59:07 22:03:25 46° 99° (E) 22:07:47 435.000
ESTCUBE 1 22 Jan 22:08:08 22:12:28 47° 71° (ENE) 22:16:50 437.505/2401.250
VELOX 1 22 Jan 22:09:20 22:12:33 20° 63° (ENE) 22:15:47 145.980
HUMSAT D 22 Jan 22:10:20 22:13:44 25° 266° (W) 22:17:11 437.325/437.525
AO-85 22 Jan 22:11:13 22:15:02 51° 239° (WSW) 22:18:49 145.980
PRISM 22 Jan 22:11:31 22:15:22 39° 290° (WNW) 22:19:11 437.425
ANTELSAT 22 Jan 22:14:57 22:19:26 72° 103° (ESE) 22:23:58 437.575/2403.000
GONETS M04 22 Jan 22:16:06 22:21:26 17° 306° (NW) 22:26:50
SPROUT 22 Jan 22:18:45 22:21:34 17° 62° (ENE) 22:24:22 437.525
UKube-1 22 Jan 22:28:20 22:29:55 12° 58° (ENE) 22:31:31 .
DX 1 22 Jan 22:33:02 22:35:56 18° 61° (ENE) 22:38:49 434.975-435.025
BEESAT 2 22 Jan 22:42:08 22:43:35 12° 29° (NNE) 22:45:01 435.950
QB50P1 22 Jan 22:43:05 22:45:30 15° 91° (E) 22:47:55 145.935-145.965
CUBEBUG 1 22 Jan 22:47:29 22:51:53 70° 74° (ENE) 22:56:16 437.445
POLYITAN 1 22 Jan 22:47:49 22:50:36 17° 92° (E) 22:53:22 437.675
QB50P2 22 Jan 22:49:00 22:51:59 18° 92° (E) 22:54:58 145.880/145.840
50 SAT 22 Jan 22:55:53 22:59:10 36° 71° (ENE) 23:02:30 437.505
RS-15 22 Jan 23:02:33 23:14:09 64° 116° (ESE) 23:26:14 29.354- 29.394
PCSat 22 Jan 23:07:59 23:11:56 21° 107° (ESE) 23:15:53 145.827
POPSAT HIP 1 22 Jan 23:09:20 23:12:58 27° 95° (E) 23:16:34 437.405
AISAT 22 Jan 23:10:56 23:15:23 82° 75° (ENE) 23:19:51 437.250
ISS 22 Jan 23:12:58 23:16:05 40° 344° (NNW) 23:19:11 145.825
DUCHIFAT 1 22 Jan 23:16:44 23:20:22 28° 95° (E) 23:24:00 145.980
JAS-2 22 Jan 23:18:49 23:26:06 87° 105° (ESE) 23:33:56 435.910
NANOSAT C BR1 22 Jan 23:23:32 23:27:26 36° 97° (E) 23:31:20 145.865
UNISAT 6 22 Jan 23:23:47 23:27:24 25° 294° (WNW) 23:31:05 437.425
AIST 1 22 Jan 23:26:32 23:29:18 17° 68° (ENE) 23:32:03
BEESAT 3 22 Jan 23:27:40 23:31:27 38° 47° (NE) 23:35:12 437.485
TIGRISAT 22 Jan 23:36:32 23:39:49 21° 296° (WNW) 23:43:09 435.000
TISAT 1 22 Jan 23:37:08 23:39:57 18° 63° (ENE) 23:42:46 437.305
YUBILEINY 22 Jan 23:37:27 23:45:01 30° 64° (ENE) 23:52:29 435.215
BUGSAT 1 22 Jan 23:40:52 23:43:43 18° 93° (E) 23:46:34 437.445
VELOX 1 22 Jan 23:44:23 23:48:41 48° 260° (W) 23:53:00 145.980
ESTCUBE 1 22 Jan 23:46:10 23:49:30 20° 268° (W) 23:52:52 437.505/2401.250
SPROUT 22 Jan 23:52:57 23:57:06 52° 260° (W) 00:01:16 437.525
ANTELSAT 22 Jan 23:53:12 23:55:36 15° 299° (WNW) 23:58:02 437.575/2403.000
UKube-1 23 Jan 00:00:58 00:05:18 86° 256° (WSW) 00:09:39 .
SWISSCUBE 23 Jan 00:02:52 00:03:23 10° 54° (NE) 00:03:55 437.505
DX 1 23 Jan 00:07:25 00:11:42 55° 259° (W) 00:16:01 434.975-435.025
QB50P1 23 Jan 00:17:28 00:21:36 55° 288° (WNW) 00:25:44 145.935-145.965
BEESAT 2 23 Jan 00:18:17 00:22:17 53° 50° (NE) 00:26:14 435.950
POLYITAN 1 23 Jan 00:22:34 00:26:39 49° 289° (WNW) 00:30:45 437.675
QB50P2 23 Jan 00:23:58 00:28:00 44° 290° (WNW) 00:32:02 145.880/145.840
CUBEBUG 1 23 Jan 00:26:40 00:28:38 13° 271° (W) 00:30:35 437.445
50 SAT 23 Jan 00:30:13 00:32:31 16° 267° (W) 00:34:51 437.505
Cosmos 2491 23 Jan 00:31:53 00:38:47 28° 80° (E) 00:45:43 435.465 / 435.565
POPSAT HIP 1 23 Jan 00:45:01 00:48:43 30° 292° (WNW) 00:52:25 437.405
PCSat 23 Jan 00:49:26 00:54:49 66° 306° (NW) 01:00:14 145.827
ISS 23 Jan 00:50:10 00:53:04 29° 4° (N) 00:55:58 145.825
AISAT 23 Jan 00:51:14 00:52:25 11° 272° (W) 00:53:36 437.250
DUCHIFAT 1 23 Jan 00:52:22 00:56:00 29° 293° (WNW) 00:59:38 145.980
NANOSAT C BR1 23 Jan 00:59:38 01:02:59 23° 295° (WNW) 01:06:19 145.865
ITUPSAT 1 23 Jan 01:01:36 01:05:43 30° 65° (ENE) 01:09:53 437.325
AIST 1 23 Jan 01:03:05 01:07:13 49° 266° (W) 01:11:18
Cosmos 2504 23 Jan 01:04:48 01:11:57 48° 73° (ENE) 01:18:49 435.465 / 435.565
AIST 2 23 Jan 01:04:59 01:05:15 10° 25° (NNE) 01:05:31 435.215
JAS-2 23 Jan 01:05:00 01:10:24 24° 303° (WNW) 01:16:05 435.910
BEESAT 3 23 Jan 01:05:37 01:08:54 25° 245° (WSW) 01:12:10 437.485
MOZHAYETS 4 23 Jan 01:08:14 01:09:45 12° 57° (ENE) 01:11:17
TISAT 1 23 Jan 01:11:12 01:15:14 48° 260° (W) 01:19:18 437.305
BUGSAT 1 23 Jan 01:15:28 01:19:16 41° 290° (WNW) 01:23:04 437.445
RS-15 23 Jan 01:15:29 01:27:12 52° 322° (NW) 01:39:16 29.354- 29.394
Oscar 19 23 Jan 01:25:35 01:30:43 60° 101° (E) 01:35:47 437.125/150
BEESAT 23 Jan 01:33:41 01:38:21 60° 72° (ENE) 01:43:03 436.000
YUBILEINY 23 Jan 01:33:50 01:42:35 69° 267° (W) 01:51:14 435.215
SWISSCUBE 23 Jan 01:35:34 01:40:17 69° 72° (ENE) 01:45:03 437.505
AUBIESAT-1 23 Jan 01:46:01 01:47:48 13° 56° (ENE) 01:49:33 437.475
CUSAT 1 23 Jan 01:46:30 01:51:03 25° 82° (E) 01:56:28 437.405
BEESAT 2 23 Jan 01:56:57 01:59:41 18° 248° (WSW) 02:02:24 435.950
Gurwin Techsat 1B 23 Jan 02:01:52 02:07:12 69° 102° (ESE) 02:12:30 435.225
PHONESAT 2.4 23 Jan 02:14:14 02:15:56 19° 175° (S) 02:17:38 2401.200-2431.200
ITAMSAT 1 23 Jan 02:15:22 02:19:09 20° 92° (E) 02:22:56 435.822/435.867
Cosmos 2491 23 Jan 02:26:09 02:34:49 71° 281° (W) 02:43:35 435.465 / 435.565
ISS 23 Jan 02:26:43 02:29:57 62° 24° (NNE) 02:33:11 145.825
PCSat 23 Jan 02:35:52 02:39:17 17° 327° (NNW) 02:42:43 145.827
ITUPSAT 1 23 Jan 02:39:09 02:43:28 34° 263° (W) 02:47:51 437.325
AIST 2 23 Jan 02:40:53 02:44:53 38° 46° (NE) 02:48:53 435.215
MOZHAYETS 4 23 Jan 02:41:34 02:46:09 84° 75° (ENE) 02:50:47
M-CUBED/EXP-1 PRIME 23 Jan 02:43:24 02:47:35 58° 67° (ENE) 02:51:29 437.505
AO-7 23 Jan 02:50:08 02:57:30 33° 95° (E) 03:04:46 29.400- 29.500
Cosmos 2504 23 Jan 02:58:39 03:05:03 34° 275° (W) 03:11:17 435.465 / 435.565
KKS-1 23 Jan 03:00:53 03:05:08 46° 70° (ENE) 03:09:23 437.445
DANDE 23 Jan 03:05:11 03:08:51 28° 85° (E) 03:13:31 436.750
Oscar 19 23 Jan 03:05:47 03:09:36 21° 300° (WNW) 03:13:23 437.125/150
BEESAT 23 Jan 03:13:27 03:16:32 17° 269° (W) 03:19:38 436.000
SWISSCUBE 23 Jan 03:15:56 03:18:34 15° 271° (W) 03:21:13 437.505
AUBIESAT-1 23 Jan 03:17:36 03:21:47 75° 251° (WSW) 03:25:42 437.475
CUSAT 1 23 Jan 03:26:42 03:32:15 60° 287° (WNW) 03:39:18 437.405
RS-15 23 Jan 03:32:47 03:43:25 32° 355° (N) 03:54:06 29.354- 29.394
YUBILEINY 23 Jan 03:33:29 03:37:35 14° 288° (WNW) 03:41:42 435.215
CUBESAT XI-V 23 Jan 03:35:03 03:39:34 49° 71° (ENE) 03:44:09 437.345
Gurwin Techsat 1B 23 Jan 03:42:55 03:46:36 19° 301° (WNW) 03:50:18 435.225
STARS 23 Jan 03:45:55 03:50:14 62° 73° (ENE) 03:54:34 437.465
PHONESAT 2.4 23 Jan 03:47:53 03:49:20 15° 192° (SSW) 03:50:47 2401.200-2431.200
ITAMSAT 1 23 Jan 03:53:53 03:59:01 59° 289° (WNW) 04:04:08 435.822/435.867
ISS 23 Jan 04:03:34 04:06:13 23° 221° (SW) 04:08:52 145.825
AIST 2 23 Jan 04:19:37 04:23:15 27° 245° (WSW) 04:26:49 435.215
M-CUBED/EXP-1 PRIME 23 Jan 04:19:52 04:22:17 15° 262° (W) 04:24:37 437.505
MOZHAYETS 4 23 Jan 04:22:38 04:23:57 11° 273° (W) 04:25:16
GONETS M04 23 Jan 04:26:00 04:31:11 16° 53° (NE) 04:36:20
BRITE-PL 23 Jan 04:27:00 04:31:19 32° 94° (E) 04:35:20 437.365/2234.400
Cosmos 2491 23 Jan 04:28:15 04:33:32 17° 306° (NW) 04:38:52 435.465 / 435.565
KKS-1 23 Jan 04:38:42 04:41:55 19° 267° (W) 04:45:09 437.445
AO-7 23 Jan 04:42:30 04:50:44 64° 296° (WNW) 04:58:55 29.400- 29.500
DANDE 23 Jan 04:47:19 04:51:21 34° 294° (WNW) 04:56:37 436.750
STRAND 1 23 Jan 04:55:29 04:58:16 15° 57° (ENE) 05:01:04 437.568
Cosmos 2499 23 Jan 05:09:37 05:15:38 28° 66° (ENE) 05:21:34 435.465 / 435.565
CUSAT 1 23 Jan 05:13:18 05:16:07 13° 312° (NW) 05:19:10 437.405
CUBESAT XI-V 23 Jan 05:13:45 05:17:13 20° 269° (W) 05:20:43 437.345
STARS 23 Jan 05:24:40 05:27:00 14° 270° (W) 05:29:20 437.465
CUTE-I 23 Jan 05:25:52 05:29:58 22° 92° (E) 05:34:02 437.470
HORYU 2 23 Jan 05:34:59 05:39:26 65° 102° (ESE) 05:43:52 437.375
O/OREOS (USA 219) 23 Jan 05:46:15 05:50:41 66° 111° (ESE) 05:55:08 437.305
RS-15 23 Jan 05:48:37 06:00:14 42° 29° (NNE) 06:11:35 29.354- 29.394
GOMX 1 23 Jan 05:53:41 05:58:07 89° 293° (WNW) 06:02:20 467.674
BRITE-PL 23 Jan 06:05:32 06:09:46 30° 294° (WNW) 06:13:44 437.365/2234.400
NOAA 15 23 Jan 06:07:34 06:12:46 51° 100° (E) 06:17:54 137.62
Cubesat XI-IV 23 Jan 06:09:20 06:14:32 50° 100° (E) 06:19:43 437.490
PCSat 23 Jan 06:10:27 06:11:31 10° 21° (NNE) 06:12:35 145.827
DOVE 4 23 Jan 06:17:24 06:21:34 63° 101° (E) 06:25:40 437.250
GONETS M04 23 Jan 06:21:09 06:29:59 68° 78° (ENE) 06:38:48
LilacSat-2 23 Jan 06:22:16 06:26:09 88° 99° (E) 06:30:03 437.200
STRAND 1 23 Jan 06:31:38 06:36:44 87° 253° (WSW) 06:41:53 437.568
AO-7 23 Jan 06:36:49 06:41:57 18° 318° (NW) 06:47:04 29.400- 29.500
NOAA 18 23 Jan 06:38:00 06:43:19 49° 100° (E) 06:48:35 137.9125
SO-50 23 Jan 06:44:08 06:48:24 35° 117° (ESE) 06:52:38 436.795
CANX-2 23 Jan 06:46:08 06:49:23 21° 92° (E) 06:52:37 2200.000
SEEDS 23 Jan 06:51:38 06:53:48 14° 89° (E) 06:55:58 437.485
HO-68 23 Jan 06:57:31 07:03:49 32° 95° (E) 07:10:03 435.675
Cosmos 2499 23 Jan 07:02:17 07:09:14 58° 268° (W) 07:16:07 435.465 / 435.565
CUTE-I 23 Jan 07:05:07 07:10:20 56° 290° (WNW) 07:15:33 437.470
HORYU 2 23 Jan 07:12:47 07:15:30 16° 300° (WNW) 07:18:11 437.375
CINEMA 3 23 Jan 07:23:44 07:27:57 76° 102° (ESE) 07:32:16 145.822/145.860
O/OREOS (USA 219) 23 Jan 07:27:33 07:30:33 17° 311° (NW) 07:33:34 437.305
PRISM 23 Jan 07:28:30 07:31:38 21° 64° (ENE) 07:34:46 437.425
GOMX 1 23 Jan 07:34:28 07:35:26 11° 304° (WNW) 07:36:22 467.674
NOAA 15 23 Jan 07:47:56 07:52:14 25° 298° (WNW) 07:56:29 137.62
Cubesat XI-IV 23 Jan 07:49:59 07:54:18 26° 298° (WNW) 07:58:39 437.490
CUTE 1.7 + AOD 2 23 Jan 07:51:12 07:55:32 85° 102° (ESE) 07:59:50 437.475
PCSat 23 Jan 07:51:48 07:56:43 33° 45° (NE) 08:01:34 145.827
DOVE 4 23 Jan 07:56:39 07:58:46 14° 299° (WNW) 08:00:53 437.250
CUBEBUG 2 23 Jan 07:57:43 08:01:54 43° 98° (E) 08:06:11 437.445
RS-15 23 Jan 08:01:51 08:14:18 86° 237° (WSW) 08:26:15 29.354- 29.394
FUNcube-1 23 Jan 08:06:56 08:10:15 20° 92° (E) 08:13:35 145.935
STRAND 1 23 Jan 08:15:00 08:16:40 11° 273° (W) 08:18:21 437.568
GONETS M04 23 Jan 08:18:52 08:26:07 30° 279° (W) 08:33:22
NOAA 18 23 Jan 08:19:11 08:23:43 27° 298° (WNW) 08:28:14 137.9125
UWE-3 23 Jan 08:19:33 08:23:47 47° 99° (E) 08:28:08 435.000/436.395/437.385
CANX-2 23 Jan 08:21:21 08:25:25 41° 290° (WNW) 08:29:26 2200.000
SO-50 23 Jan 08:24:30 08:28:51 37° 316° (NW) 08:33:11 436.795
COMPASS 1 23 Jan 08:24:59 08:29:14 88° 100° (E) 08:33:25 437.405
SEEDS 23 Jan 08:25:41 08:29:54 61° 286° (WNW) 08:34:04 437.485
ZACube-1 23 Jan 08:31:17 08:35:25 38° 97° (E) 08:39:37 437.345
AAUSAT CUBESAT 2 23 Jan 08:33:03 08:37:16 84° 102° (ESE) 08:41:26 437.432
HO-68 23 Jan 08:44:52 08:51:53 57° 294° (WNW) 08:58:48 435.675
UNISAT 6 23 Jan 08:47:54 08:51:55 42° 70° (ENE) 08:55:58 437.425
TIGRISAT 23 Jan 09:00:07 09:04:14 52° 72° (ENE) 09:08:24 435.000
Oscar 11 23 Jan 09:01:45 09:06:07 66° 101° (E) 09:10:27 145.826/435.025
PRISM 23 Jan 09:02:45 09:06:41 40° 262° (W) 09:10:38 437.425
CINEMA 3 23 Jan 09:02:49 09:04:34 12° 299° (WNW) 09:06:19 145.822/145.860
ANTELSAT 23 Jan 09:16:03 09:20:18 83° 75° (ENE) 09:24:36 437.575/2403.000
DELFI C3 23 Jan 09:22:32 09:26:17 37° 97° (E) 09:29:58 145.870
CUTE 1.7 + AOD 2 23 Jan 09:29:10 09:30:42 12° 301° (WNW) 09:32:14 437.475
JAS-2 23 Jan 09:34:26 09:39:40 47° 67° (ENE) 09:45:30 435.910
CUBEBUG 2 23 Jan 09:34:59 09:38:17 21° 295° (WNW) 09:41:39 437.445
PCSat 23 Jan 09:35:05 09:40:17 48° 245° (WSW) 09:45:28 145.827
QB50P1 23 Jan 09:38:01 09:40:37 16° 62° (ENE) 09:43:14 145.935-145.965
FUNcube-1 23 Jan 09:42:29 09:46:39 44° 289° (WNW) 09:50:55 145.935
POLYITAN 1 23 Jan 09:42:55 09:45:46 18° 63° (ENE) 09:48:39 437.675
QB50P2 23 Jan 09:44:04 09:47:07 20° 64° (ENE) 09:50:10 145.880/145.840
HUMSAT D 23 Jan 09:50:05 09:54:12 43° 98° (E) 09:58:18 437.325/437.525
UWE-3 23 Jan 09:56:45 09:59:58 20° 296° (WNW) 10:03:13 435.000/436.395/437.385
COMPASS 1 23 Jan 10:03:01 10:04:05 11° 301° (WNW) 10:05:10 437.405
POPSAT HIP 1 23 Jan 10:04:06 10:07:40 28° 67° (ENE) 10:11:15 437.405
ZACube-1 23 Jan 10:07:59 10:11:31 24° 294° (WNW) 10:15:06 437.345
SO-50 23 Jan 10:09:17 10:10:38 11° 338° (NNW) 10:11:59 436.795
AAUSAT CUBESAT 2 23 Jan 10:10:46 10:12:05 11° 301° (WNW) 10:13:23 437.432
DUCHIFAT 1 23 Jan 10:10:49 10:14:24 28° 67° (ENE) 10:17:58 145.980
RS-15 23 Jan 10:15:53 10:24:59 26° 260° (W) 10:33:52 29.354- 29.394
NANOSAT C BR1 23 Jan 10:17:47 10:21:36 36° 69° (ENE) 10:25:27 145.865
BY70-1 23 Jan 10:24:54 10:27:18 19° 93° (E) 10:29:35 436.1900
UNISAT 6 23 Jan 10:25:46 10:28:51 19° 268° (W) 10:31:57 437.425
BUGSAT 1 23 Jan 10:33:08 10:35:57 19° 64° (ENE) 10:38:47 437.445
HO-68 23 Jan 10:34:51 10:38:06 14° 315° (NW) 10:41:21 435.675
CUBEBUG 1 23 Jan 10:36:22 10:37:10 10° 87° (E) 10:37:58 437.445
Cosmos 2491 23 Jan 10:38:11 10:43:18 16° 53° (NE) 10:48:23 435.465 / 435.565
TIGRISAT 23 Jan 10:38:44 10:41:17 15° 270° (W) 10:43:51 435.000
Oscar 11 23 Jan 10:39:17 10:41:45 15° 299° (WNW) 10:44:11 145.826/435.025
DELFI C3 23 Jan 10:57:53 11:00:51 20° 295° (WNW) 11:03:48 145.870
AISAT 23 Jan 11:00:21 11:02:17 13° 89° (E) 11:04:13 437.250
Oscar 19 23 Jan 11:07:53 11:11:14 18° 58° (ENE) 11:14:35 437.125/150
QB50P1 23 Jan 11:11:52 11:15:58 55° 259° (W) 11:20:07 145.935-145.965
POLYITAN 1 23 Jan 11:17:11 11:21:14 47° 261° (W) 11:25:19 437.675
QB50P2 23 Jan 11:18:37 11:22:38 43° 262° (W) 11:26:39 145.880/145.840
JAS-2 23 Jan 11:20:31 11:25:06 27° 269° (W) 11:30:08 435.910
HUMSAT D 23 Jan 11:26:20 11:29:32 21° 295° (WNW) 11:32:44 437.325/437.525
VELOX 1 23 Jan 11:32:09 11:35:51 25° 95° (E) 11:39:29 145.980
ESTCUBE 1 23 Jan 11:34:31 11:39:04 73° 103° (ESE) 11:43:34 437.505/2401.250
SPROUT 23 Jan 11:36:39 11:39:57 22° 93° (E) 11:43:15 437.525
POPSAT HIP 1 23 Jan 11:39:45 11:43:24 29° 264° (W) 11:47:04 437.405
DUCHIFAT 1 23 Jan 11:46:26 11:50:02 28° 264° (W) 11:53:39 145.980
UKube-1 23 Jan 11:47:14 11:49:13 13° 90° (E) 11:51:13 .
Gurwin Techsat 1B 23 Jan 11:47:22 11:51:19 22° 60° (ENE) 11:55:16 435.225
50 SAT 23 Jan 11:52:02 11:55:09 28° 96° (E) 11:58:14 437.505
DX 1 23 Jan 11:53:40 11:56:57 21° 93° (E) 12:00:12 434.975-435.025
NANOSAT C BR1 23 Jan 11:54:11 11:57:26 22° 266° (W) 12:00:43 145.865
BY70-1 23 Jan 11:54:53 11:57:31 23° 293° (WNW) 12:00:00 436.1900
DANDE 23 Jan 11:58:52 11:59:56 10° 49° (NE) 12:01:01 436.750
AO-7 23 Jan 12:03:53 12:08:29 16° 40° (NE) 12:13:05 29.400- 29.500
BUGSAT 1 23 Jan 12:07:11 12:11:03 42° 261° (W) 12:14:54 437.445
CUBEBUG 1 23 Jan 12:09:40 12:14:02 81° 285° (WNW) 12:18:19 437.445
CUSAT 1 23 Jan 12:15:27 12:22:15 30° 62° (ENE) 12:28:37 437.405
AO-85 23 Jan 12:27:41 12:31:36 27° 116° (ESE) 12:35:17 145.980
AISAT 23 Jan 12:34:51 12:39:14 69° 287° (WNW) 12:43:35 437.250
